Time,TemperatureF,DewpointF,PressureIn,WindDirection,WindDirectionDegrees,WindSpeedMPH,WindSpeedGustMPH,Humidity,HourlyPrecipIn,Conditions,Clouds,dailyrainin,SoftwareType,DateUTC
2017-01-19 00:01:00,27.0,25.0,30.99,NNE,32,0.0,0.0,92,0.02,,,0.18,meteobridge,2017-01-19 08:01:00,
2017-01-19 00:06:00,27.0,25.0,31.00,NNE,32,0.0,0.0,92,0.02,,,0.18,meteobridge,2017-01-19 08:06:00,
2017-01-19 00:11:00,27.0,25.2,30.99,NNE,32,0.0,0.0,93,0.02,,,0.18,meteobridge,2017-01-19 08:11:00,
2017-01-19 00:16:00,27.1,25.3,30.99,NNE,32,0.0,0.0,93,0.02,,,0.18,meteobridge,2017-01-19 08:16:00,
2017-01-19 00:21:00,27.1,25.3,31.00,NNE,32,0.0,0.0,93,0.02,,,0.18,meteobridge,2017-01-19 08:21:00,
2017-01-19 00:26:00,27.1,25.2,31.00,NNE,32,0.0,0.0,92,0.02,,,0.18,meteobridge,2017-01-19 08:26:00,
2017-01-19 00:31:00,27.1,25.2,31.00,NNE,32,0.0,0.0,92,0.01,,,0.18,meteobridge,2017-01-19 08:31:00,
2017-01-19 00:36:00,27.1,25.2,31.00,NNE,32,0.0,0.0,92,0.01,,,0.18,meteobridge,2017-01-19 08:36:00,
2017-01-19 00:41:00,27.1,25.2,31.00,NNE,32,0.0,0.0,92,0.01,,,0.18,meteobridge,2017-01-19 08:41:00,
2017-01-19 00:46:00,27.1,25.3,31.00,NNE,32,0.0,0.0,93,0.01,,,0.18,meteobridge,2017-01-19 08:46:00,
2017-01-19 00:51:00,27.1,25.3,31.00,NNE,32,0.0,0.0,93,0.01,,,0.18,meteobridge,2017-01-19 08:51:00,
2017-01-19 00:56:00,27.3,25.3,31.00,NNE,32,0.0,0.0,92,0.01,,,0.18,meteobridge,2017-01-19 08:56:00,
2017-01-19 01:01:00,27.3,25.3,31.00,NNE,32,0.0,0.0,92,0.00,,,0.18,meteobridge,2017-01-19 09:01:00,
2017-01-19 01:06:00,27.3,25.3,31.00,NNE,32,0.0,0.0,92,0.00,,,0.18,meteobridge,2017-01-19 09:06:00,
2017-01-19 01:11:00,27.3,25.3,31.00,NNE,32,0.0,0.0,92,0.00,,,0.18,meteobridge,2017-01-19 09:11:00,
2017-01-19 01:16:00,27.1,25.2,31.00,NNE,32,0.0,0.0,92,0.00,,,0.18,meteobridge,2017-01-19 09:16:00,
2017-01-19 01:21:00,27.1,25.2,31.01,NNE,32,0.0,0.0,92,0.00,,,0.18,meteobridge,2017-01-19 09:21:00,
2017-01-19 01:26:00,27.1,25.2,31.00,NNE,32,0.0,0.0,92,0.00,,,0.18,meteobridge,2017-01-19 09:26:00,
2017-01-19 01:31:00,27.1,25.3,31.01,NNE,32,0.0,0.0,93,0.00,,,0.18,meteobridge,2017-01-19 09:31:00,
2017-01-19 01:36:00,27.3,25.5,31.01,NNE,32,0.0,0.0,93,0.00,,,0.18,meteobridge,2017-01-19 09:36:00,
2017-01-19 01:41:00,27.3,25.3,31.00,NNE,32,0.0,0.0,92,0.00,,,0.18,meteobridge,2017-01-19 09:41:00,
2017-01-19 01:46:00,27.1,25.3,31.01,NNE,32,0.0,0.0,93,0.00,,,0.18,meteobridge,2017-01-19 09:46:00,
2017-01-19 01:51:00,27.1,25.3,31.00,NNE,32,0.0,0.0,93,0.00,,,0.18,meteobridge,2017-01-19 09:51:00,
2017-01-19 01:56:00,27.1,25.3,31.01,NNE,32,0.0,0.0,93,0.00,,,0.18,meteobridge,2017-01-19 09:56:00,
2017-01-19 02:01:00,27.1,25.3,31.01,NNE,32,0.0,0.0,93,0.00,,,0.18,meteobridge,2017-01-19 10:01:00,
2017-01-19 02:06:00,27.0,25.2,31.01,NNE,32,0.0,0.0,93,0.00,,,0.18,meteobridge,2017-01-19 10:06:00,
2017-01-19 02:11:00,27.0,25.2,31.02,NNE,32,0.0,0.0,93,0.00,,,0.18,meteobridge,2017-01-19 10:11:00,
2017-01-19 02:16:00,27.0,25.2,31.01,NNE,32,0.0,0.0,93,0.00,,,0.18,meteobridge,2017-01-19 10:16:00,
2017-01-19 02:21:00,27.0,25.2,31.02,NNE,32,0.0,0.0,93,0.00,,,0.18,meteobridge,2017-01-19 10:21:00,
2017-01-19 02:26:00,27.0,25.5,31.03,NNE,32,0.0,0.0,94,0.00,,,0.18,meteobridge,2017-01-19 10:26:00,
2017-01-19 02:31:00,27.0,25.5,31.02,NNE,32,0.0,0.0,94,0.00,,,0.18,meteobridge,2017-01-19 10:31:00,
2017-01-19 02:36:00,27.1,25.7,31.03,NNE,32,0.0,0.0,94,0.00,,,0.18,meteobridge,2017-01-19 10:36:00,
2017-01-19 02:41:00,27.3,25.5,31.03,NNE,32,0.0,0.0,93,0.00,,,0.18,meteobridge,2017-01-19 10:41:00,
2017-01-19 02:46:00,27.5,25.7,31.03,NNE,32,0.0,0.0,93,0.00,,,0.18,meteobridge,2017-01-19 10:46:00,
2017-01-19 02:51:00,27.7,25.9,31.03,NNE,32,0.0,0.0,93,0.00,,,0.18,meteobridge,2017-01-19 10:51:00,
2017-01-19 02:56:00,27.9,26.1,31.04,NNE,32,0.0,0.0,93,0.00,,,0.18,meteobridge,2017-01-19 10:56:00,
2017-01-19 03:01:00,27.9,25.9,31.03,NNE,32,0.0,0.0,92,0.00,,,0.18,meteobridge,2017-01-19 11:01:00,
2017-01-19 03:06:00,27.9,25.9,31.03,NNE,32,0.0,0.0,92,0.00,,,0.18,meteobridge,2017-01-19 11:06:00,
2017-01-19 03:11:00,28.0,26.1,31.03,NNE,32,0.0,0.0,92,0.00,,,0.18,meteobridge,2017-01-19 11:11:00,
2017-01-19 03:16:00,27.9,25.9,31.04,NNE,32,0.0,0.0,92,0.00,,,0.18,meteobridge,2017-01-19 11:16:00,
2017-01-19 03:21:00,27.7,25.7,31.03,NNE,32,0.0,0.0,92,0.00,,,0.18,meteobridge,2017-01-19 11:21:00,
2017-01-19 03:26:00,27.5,25.5,31.04,NNE,32,0.0,0.0,92,0.00,,,0.18,meteobridge,2017-01-19 11:26:00,
2017-01-19 03:31:00,27.3,25.5,31.04,NNE,32,0.0,0.0,93,0.00,,,0.18,meteobridge,2017-01-19 11:31:00,
2017-01-19 03:36:00,27.3,25.5,31.04,NNE,32,0.0,0.0,93,0.00,,,0.18,meteobridge,2017-01-19 11:36:00,
2017-01-19 03:41:00,27.3,25.5,31.05,NNE,32,0.0,0.0,93,0.00,,,0.18,meteobridge,2017-01-19 11:41:00,
2017-01-19 03:46:00,27.3,25.5,31.04,NNE,32,0.0,0.0,93,0.00,,,0.18,meteobridge,2017-01-19 11:46:00,
2017-01-19 03:51:00,27.3,25.5,31.04,NNE,32,0.0,0.0,93,0.00,,,0.18,meteobridge,2017-01-19 11:51:00,
2017-01-19 03:56:00,27.5,25.7,31.04,NNE,32,0.0,0.0,93,0.00,,,0.18,meteobridge,2017-01-19 11:56:00,
2017-01-19 04:01:00,27.7,25.9,31.04,NNE,32,0.0,0.0,93,0.00,,,0.18,meteobridge,2017-01-19 12:01:00,
2017-01-19 04:06:00,27.9,26.1,31.04,NNE,32,0.0,0.0,93,0.00,,,0.18,meteobridge,2017-01-19 12:06:00,
2017-01-19 04:11:00,27.9,26.1,31.04,NNE,32,0.0,0.0,93,0.00,,,0.18,meteobridge,2017-01-19 12:11:00,
2017-01-19 04:16:00,27.9,25.9,31.04,NNE,32,0.0,0.0,92,0.00,,,0.18,meteobridge,2017-01-19 12:16:00,
2017-01-19 04:21:00,28.0,26.1,31.05,NNE,32,0.0,0.0,92,0.00,,,0.18,meteobridge,2017-01-19 12:21:00,
2017-01-19 04:26:00,28.0,26.1,31.04,NNE,32,0.0,0.0,92,0.00,,,0.18,meteobridge,2017-01-19 12:26:00,
2017-01-19 04:31:00,28.0,26.1,31.05,NNE,32,0.0,0.0,92,0.00,,,0.18,meteobridge,2017-01-19 12:31:00,
2017-01-19 04:36:00,27.9,25.9,31.05,NNE,32,0.0,0.0,92,0.00,,,0.18,meteobridge,2017-01-19 12:36:00,
2017-01-19 04:41:00,27.9,25.9,31.05,NNE,32,0.0,0.0,92,0.00,,,0.18,meteobridge,2017-01-19 12:41:00,
2017-01-19 04:46:00,27.9,25.9,31.05,NNE,32,0.0,0.0,92,0.00,,,0.18,meteobridge,2017-01-19 12:46:00,
2017-01-19 04:51:00,27.9,25.9,31.05,NNE,32,0.0,0.0,92,0.00,,,0.18,meteobridge,2017-01-19 12:51:00,
2017-01-19 04:56:00,27.9,25.9,31.05,NNE,32,0.0,0.0,92,0.00,,,0.18,meteobridge,2017-01-19 12:56:00,
2017-01-19 05:01:00,27.7,25.7,31.05,NNE,32,0.0,0.0,92,0.00,,,0.18,meteobridge,2017-01-19 13:01:00,
2017-01-19 05:06:00,27.7,25.7,31.06,NNE,32,0.0,0.0,92,0.00,,,0.18,meteobridge,2017-01-19 13:06:00,
2017-01-19 05:11:00,27.7,25.7,31.06,NNE,32,0.0,0.0,92,0.00,,,0.18,meteobridge,2017-01-19 13:11:00,
2017-01-19 05:16:00,27.7,25.7,31.06,NNE,32,0.0,0.0,92,0.00,,,0.18,meteobridge,2017-01-19 13:16:00,
2017-01-19 05:21:00,27.7,25.7,31.06,NNE,32,0.0,0.0,92,0.00,,,0.18,meteobridge,2017-01-19 13:21:00,
2017-01-19 05:26:00,27.9,26.1,31.06,NNE,32,0.0,0.0,93,0.00,,,0.18,meteobridge,2017-01-19 13:26:00,
2017-01-19 05:31:00,27.9,25.9,31.06,NNE,32,0.0,0.0,92,0.00,,,0.18,meteobridge,2017-01-19 13:31:00,
2017-01-19 05:36:00,27.7,25.7,31.06,NNE,32,0.0,0.0,92,0.01,,,0.19,meteobridge,2017-01-19 13:36:00,
2017-01-19 05:41:00,27.7,25.7,31.06,NNE,32,0.0,0.0,92,0.01,,,0.19,meteobridge,2017-01-19 13:41:00,
2017-01-19 05:46:00,27.9,26.1,31.05,NNE,32,0.0,0.0,93,0.01,,,0.19,meteobridge,2017-01-19 13:46:00,
2017-01-19 05:51:00,27.9,25.9,31.06,NNE,32,0.0,0.0,92,0.01,,,0.19,meteobridge,2017-01-19 13:51:00,
2017-01-19 05:56:00,28.0,26.1,31.06,NNE,32,0.0,0.0,92,0.01,,,0.19,meteobridge,2017-01-19 13:56:00,
2017-01-19 06:01:00,28.0,26.1,31.07,NNE,32,0.0,0.0,92,0.01,,,0.19,meteobridge,2017-01-19 14:01:00,
2017-01-19 06:06:00,28.0,26.1,31.07,NNE,32,0.0,0.0,92,0.01,,,0.19,meteobridge,2017-01-19 14:06:00,
2017-01-19 06:11:00,28.0,26.1,31.07,NNE,32,0.0,0.0,92,0.01,,,0.19,meteobridge,2017-01-19 14:11:00,
2017-01-19 06:16:00,28.0,26.1,31.06,NNE,32,0.0,0.0,92,0.01,,,0.19,meteobridge,2017-01-19 14:16:00,
2017-01-19 06:21:00,28.0,26.1,31.08,NNE,32,0.0,0.0,92,0.01,,,0.19,meteobridge,2017-01-19 14:21:00,
2017-01-19 06:26:00,28.0,26.1,31.08,NNE,32,0.0,0.0,92,0.01,,,0.19,meteobridge,2017-01-19 14:26:00,
2017-01-19 06:31:00,28.0,26.1,31.08,NNE,32,0.0,0.0,92,0.01,,,0.19,meteobridge,2017-01-19 14:31:00,
2017-01-19 06:36:00,27.9,25.9,31.08,NNE,32,0.0,0.0,92,0.00,,,0.19,meteobridge,2017-01-19 14:36:00,
2017-01-19 06:41:00,27.7,25.7,31.08,NNE,32,0.0,0.0,92,0.00,,,0.19,meteobridge,2017-01-19 14:41:00,
2017-01-19 06:46:00,27.7,25.9,31.08,NNE,32,0.0,0.0,93,0.00,,,0.19,meteobridge,2017-01-19 14:46:00,
2017-01-19 06:51:00,27.7,25.7,31.08,NNE,32,0.0,0.0,92,0.00,,,0.19,meteobridge,2017-01-19 14:51:00,
2017-01-19 06:56:00,27.7,25.7,31.08,NNE,32,0.0,0.0,92,0.00,,,0.19,meteobridge,2017-01-19 14:56:00,
2017-01-19 07:01:00,27.7,25.7,31.08,NNE,32,0.0,0.0,92,0.00,,,0.19,meteobridge,2017-01-19 15:01:00,
2017-01-19 07:06:00,27.7,25.7,31.08,NNE,32,0.0,0.0,92,0.00,,,0.19,meteobridge,2017-01-19 15:06:00,
2017-01-19 07:11:00,27.1,24.8,31.08,NNE,32,0.0,0.0,91,0.00,,,0.19,meteobridge,2017-01-19 15:11:00,
2017-01-19 07:16:00,27.0,25.0,31.08,NNE,32,0.0,0.0,92,0.00,,,0.19,meteobridge,2017-01-19 15:16:00,
2017-01-19 07:21:00,27.0,25.0,31.08,NNE,32,0.0,0.0,92,0.00,,,0.19,meteobridge,2017-01-19 15:21:00,
2017-01-19 07:26:00,26.8,24.8,31.08,NNE,32,0.0,0.0,92,0.00,,,0.19,meteobridge,2017-01-19 15:26:00,
2017-01-19 07:31:00,26.4,24.6,31.08,NNE,32,0.0,0.0,93,0.00,,,0.19,meteobridge,2017-01-19 15:31:00,
2017-01-19 07:36:00,26.2,24.4,31.08,NNE,32,0.0,0.0,93,0.00,,,0.19,meteobridge,2017-01-19 15:36:00,
2017-01-19 07:41:00,26.1,24.1,31.09,NNE,32,0.0,0.0,92,0.00,,,0.19,meteobridge,2017-01-19 15:41:00,
2017-01-19 07:46:00,25.9,23.9,31.09,NNE,32,0.0,0.0,92,0.00,,,0.19,meteobridge,2017-01-19 15:46:00,
2017-01-19 07:51:00,25.9,23.9,31.09,NNE,32,0.0,0.0,92,0.00,,,0.19,meteobridge,2017-01-19 15:51:00,
2017-01-19 07:56:00,25.3,23.0,31.09,NNE,32,0.0,0.0,91,0.00,,,0.19,meteobridge,2017-01-19 15:56:00,
2017-01-19 08:01:00,25.2,23.2,31.10,NNE,32,0.0,0.0,92,0.00,,,0.19,meteobridge,2017-01-19 16:01:00,
2017-01-19 08:06:00,25.0,22.6,31.10,NNE,32,0.0,0.0,91,0.00,,,0.19,meteobridge,2017-01-19 16:06:00,
2017-01-19 08:11:00,25.0,22.5,31.10,NNE,32,0.0,0.0,90,0.00,,,0.19,meteobridge,2017-01-19 16:11:00,
2017-01-19 08:16:00,24.3,21.7,31.11,NNE,32,0.0,0.0,90,0.00,,,0.19,meteobridge,2017-01-19 16:16:00,
2017-01-19 08:21:00,24.3,22.1,31.10,NNE,32,0.0,0.0,91,0.00,,,0.19,meteobridge,2017-01-19 16:21:00,
2017-01-19 08:26:00,24.3,22.1,31.10,NNE,32,0.0,0.0,91,0.00,,,0.19,meteobridge,2017-01-19 16:26:00,
2017-01-19 08:31:00,24.1,21.6,31.10,NNE,32,0.0,0.0,90,0.00,,,0.19,meteobridge,2017-01-19 16:31:00,
2017-01-19 08:36:00,24.1,21.6,31.10,NNE,32,0.0,0.0,90,0.00,,,0.19,meteobridge,2017-01-19 16:36:00,
2017-01-19 08:41:00,24.1,21.6,31.10,NNE,32,0.0,0.0,90,0.00,,,0.19,meteobridge,2017-01-19 16:41:00,
2017-01-19 08:46:00,24.1,21.9,31.11,NNE,32,0.0,0.0,91,0.00,,,0.19,meteobridge,2017-01-19 16:46:00,
2017-01-19 08:51:00,23.7,21.0,31.11,NNE,32,0.0,0.0,89,0.00,,,0.19,meteobridge,2017-01-19 16:51:00,
2017-01-19 08:56:00,23.4,20.7,31.11,NNE,32,0.0,0.0,89,0.00,,,0.19,meteobridge,2017-01-19 16:56:00,
2017-01-19 09:01:00,23.2,20.7,31.11,NNE,32,0.0,0.0,90,0.00,,,0.19,meteobridge,2017-01-19 17:01:00,
2017-01-19 09:06:00,22.8,20.3,31.11,NNE,32,0.0,0.0,90,0.00,,,0.19,meteobridge,2017-01-19 17:06:00,
2017-01-19 09:11:00,23.4,21.9,31.12,NNE,32,0.0,0.0,94,0.00,,,0.19,meteobridge,2017-01-19 17:11:00,